Rifle, CO

3:12 AM MDT on September 28, 2016 (GMT -0600)
Garfield County Regional

Weather History for KRIL - September, 2013

Change the Weather History Date:

Tuesday, September 10, 2013

  Actual Average Record
Temperature  
Mean Temperature 64 °F 63 °F  
Max Temperature 70 °F 81 °F 92 °F (1959)
Min Temperature 58 °F 46 °F 25 °F (1962)
Degree Days  
Heating Degree Days 1 3  
Month to date heating degree days 3 18  
Since 1 July heating degree days 3 25  
Cooling Degree Days 0 1  
Month to date cooling degree days 86 16  
Year to date cooling degree days 792 532  
Growing Degree Days 13 (Base 50)    
Moisture  
Dew Point 58 °F    
Average Humidity 82    
Maximum Humidity 100    
Minimum Humidity 63    
Precipitation  
Precipitation 0.07 in 0.05 in 0.51 in (2003)
Month to date precipitation 0.58 0.49  
Year to date precipitation 5.67 9.46  
Sea Level Pressure  
Sea Level Pressure 29.98 in    
Wind  
Wind Speed 3 mph (WNW)    
Max Wind Speed 20 mph    
Max Gust Speed 24 mph    
Visibility 10 miles    
Events Rain    
T = Trace of Precipitation, MM = Missing Value Source: NWS Daily Summary

Daily Weather History Graph

Daily Weather History Graph

Search for Another Location

Airport or City:

Trip Planner

Search our weather history database for the weather conditions in past years. The results will help you decide how hot, cold, wet, or windy it might be!

Date:

Astronomy

Sep. 10, 2013 Rise Set
Actual Time 6:47 AM MDT 7:27 PM MDT
Civil Twilight 6:20 AM MDT 7:54 PM MDT
Nautical Twilight 5:48 AM MDT 8:26 PM MDT
Astronomical Twilight 5:15 AM MDT 8:59 PM MDT
Moon 12:15 PM MDT (9/10) 10:34 PM MDT (9/10)
Length of Visible Light 13h 33m
Length of Day
12h 39m
Waxing Crescent, 29% of the Moon is Illuminated
Sep 10
Waxing Crescent
Sep 12
First Quarter
Sep 19
Full
Sep 26
Last Quarter
Oct 4
New

Hourly Weather History & Observations

Time (MDT) Temp. Dew Point Humidity Pressure Visibility Wind Dir Wind Speed Gust Speed Precip Events Conditions
12:53 AM 59.0 °F 57.9 °F 96% 29.96 in 10.0 mi Calm Calm - 0.02 in Rain Light Rain
1:31 AM 59.0 °F 57.2 °F 94% 30.11 in 10.0 mi Calm Calm - 0.01 in   Overcast
1:38 AM 59.0 °F 57.2 °F 94% 30.12 in 10.0 mi Calm Calm - 0.02 in   Overcast
1:53 AM 59.0 °F 57.0 °F 93% 29.98 in 10.0 mi Calm Calm - 0.02 in   Overcast
2:01 AM 59.0 °F 57.2 °F 94% 30.12 in 10.0 mi Calm Calm - N/A   Overcast
2:53 AM 57.9 °F 57.0 °F 97% 29.96 in 10.0 mi Calm Calm - 0.01 in Rain Light Rain
3:46 AM 59.0 °F 57.2 °F 94% 30.09 in 10.0 mi Calm Calm - 0.00 in   Partly Cloudy
3:53 AM 59.0 °F 57.0 °F 93% 29.95 in 10.0 mi Calm Calm - 0.00 in   Partly Cloudy
4:41 AM 57.2 °F 57.2 °F 100% 30.08 in 8.0 mi East 4.6 mph - N/A   Overcast
4:53 AM 57.9 °F 57.0 °F 97% 29.94 in 9.0 mi East 3.5 mph - N/A   Mostly Cloudy
5:53 AM 57.9 °F 57.0 °F 97% 29.94 in 5.0 mi Calm Calm - N/A   Overcast
6:53 AM 57.9 °F 57.0 °F 97% 29.95 in 9.0 mi Calm Calm - N/A   Mostly Cloudy
7:53 AM 59.0 °F 57.0 °F 93% 29.96 in 10.0 mi Calm Calm - N/A   Mostly Cloudy
8:53 AM 61.0 °F 57.0 °F 87% 29.96 in 10.0 mi Calm Calm - N/A   Overcast
9:53 AM 62.1 °F 55.9 °F 80% 29.97 in 10.0 mi Calm Calm - N/A   Overcast
10:53 AM 64.0 °F 55.9 °F 75% 29.96 in 10.0 mi West 4.6 mph - N/A   Partly Cloudy
11:53 AM 66.0 °F 57.0 °F 73% 29.95 in 10.0 mi West 8.1 mph - N/A   Scattered Clouds
12:53 PM 68.0 °F 55.9 °F 65% 29.94 in 10.0 mi West 5.8 mph - N/A   Scattered Clouds
1:53 PM 69.1 °F 57.0 °F 65% 29.93 in 10.0 mi West 10.4 mph - N/A   Overcast
2:53 PM 64.0 °F 59.0 °F 84% 29.96 in 10.0 mi West 9.2 mph 19.6 mph 0.01 in Rain Light Rain
3:53 PM 64.0 °F 60.1 °F 87% 29.95 in 10.0 mi WNW 4.6 mph - 0.02 in Rain Light Rain
4:53 PM 64.9 °F 59.0 °F 81% 29.95 in 10.0 mi Calm Calm - 0.00 in   Mostly Cloudy
5:53 PM 66.9 °F 57.9 °F 73% 29.95 in 10.0 mi Calm Calm - N/A   Partly Cloudy
6:53 PM 66.0 °F 60.1 °F 81% 29.95 in 10.0 mi NNE 3.5 mph - N/A   Mostly Cloudy
7:53 PM 64.9 °F 59.0 °F 81% 29.97 in 10.0 mi ENE 4.6 mph - N/A   Overcast
8:53 PM 64.0 °F 60.1 °F 87% 29.97 in 10.0 mi West 4.6 mph - N/A   Overcast
9:53 PM 63.0 °F 59.0 °F 87% 29.98 in 10.0 mi Calm Calm - N/A   Mostly Cloudy
10:53 PM 63.0 °F 59.0 °F 87% 29.97 in 10.0 mi West 3.5 mph - 0.00 in Rain Light Rain
11:53 PM 62.1 °F 57.9 °F 86% 29.98 in 10.0 mi Calm Calm - 0.01 in Rain Light Rain